Satellite: OKEAN-4 Catalog number: 23317 Epoch time: 10315.89859356 Element set: 391 Inclination: 082.5423 deg RA of node: 215.9780 deg Eccentricity: 0.0023627 Arg of perigee: 113.0043 deg Mean anomaly: 247.3678 deg Mean motion: 14.82890678 rev/day Decay rate: 2.98e-06 rev/day^2 Epoch rev: 86834 Checksum: 332
Satellite: NOAA-14 Catalog number: 23455 Epoch time: 10314.70910372 Element set: 0260 Inclination: 098.8699 deg RA of node: 034.3603 deg Eccentricity: 0.0009336 Arg of perigee: 174.9873 deg Mean anomaly: 185.1414 deg Mean motion: 14.13799010 rev/day Decay rate: -3.7e-07 rev/day^2 Epoch rev: 81820 Checksum: 298
Satellite: NOAA-15 Catalog number: 25338 Epoch time: 10314.84904820 Element set: 0588 Inclination: 098.6344 deg RA of node: 299.2588 deg Eccentricity: 0.0010893 Arg of perigee: 013.3113 deg Mean anomaly: 346.8344 deg Mean motion: 14.24865272 rev/day Decay rate: 1.19e-06 rev/day^2 Epoch rev: 64963 Checksum: 324
Satellite: RESURS Catalog number: 25394 Epoch time: 10314.54774439 Element set: 0649 Inclination: 098.3010 deg RA of node: 324.6349 deg Eccentricity: 0.0001784 Arg of perigee: 120.7590 deg Mean anomaly: 239.3759 deg Mean motion: 14.24215115 rev/day Decay rate: 2.3e-07 rev/day^2 Epoch rev: 64118 Checksum: 289
Satellite: FENGYUN1 Catalog number: 25730 Epoch time: 10315.44730401 Element set: 181 Inclination: 098.7995 deg RA of node: 276.6655 deg Eccentricity: 0.0019899 Arg of perigee: 209.4742 deg Mean anomaly: 150.5356 deg Mean motion: 14.08395143 rev/day Decay rate: 1.258e-05 rev/day^2 Epoch rev: 59241 Checksum: 317
Satellite: OKEAN-0 Catalog number: 25860 Epoch time: 10314.53577532 Element set: 0148 Inclination: 097.8533 deg RA of node: 282.4231 deg Eccentricity: 0.0001238 Arg of perigee: 045.7158 deg Mean anomaly: 314.4151 deg Mean motion: 14.73679815 rev/day Decay rate: 9.7e-07 rev/day^2 Epoch rev: 60845 Checksum: 301
Satellite: NOAA-16 Catalog number: 26536 Epoch time: 10316.05236565 Element set: 66 Inclination: 099.1628 deg RA of node: 336.9572 deg Eccentricity: 0.0009809 Arg of perigee: 283.2852 deg Mean anomaly: 076.7247 deg Mean motion: 14.12584619 rev/day Decay rate: 1.78e-06 rev/day^2 Epoch rev: 52270 Checksum: 326
Satellite: NOAA-17 Catalog number: 27453 Epoch time: 10314.76019264 Element set: 0055 Inclination: 098.4122 deg RA of node: 359.1613 deg Eccentricity: 0.0012678 Arg of perigee: 070.8742 deg Mean anomaly: 289.3808 deg Mean motion: 14.24206944 rev/day Decay rate: -2.5e-07 rev/day^2 Epoch rev: 43556 Checksum: 305
Satellite: NOAA-18 Catalog number: 28654 Epoch time: 10314.76265235 Element set: 0545 Inclination: 098.9681 deg RA of node: 260.7156 deg Eccentricity: 0.0014439 Arg of perigee: 003.6246 deg Mean anomaly: 356.5022 deg Mean motion: 14.11407582 rev/day Decay rate: 3.67e-06 rev/day^2 Epoch rev: 28211 Checksum: 299
Satellite: NOAA-19 Catalog number: 33591 Epoch time: 10314.85356473 Element set: 0741 Inclination: 098.8044 deg RA of node: 253.9473 deg Eccentricity: 0.0013371 Arg of perigee: 232.5476 deg Mean anomaly: 127.4495 deg Mean motion: 14.11099597 rev/day Decay rate: -1.35e-06 rev/day^2 Epoch rev: 09059 Checksum: 324
/EX SB KEPS @ AMSAT $ORB10316.M Orbital Elements 10316.MISC
HR AMSAT ORBITAL ELEMENTS FOR MANNED AND MISCELLANEOUS SATELLITES FROM WA5QGD FORT WORTH,TX November 12, 2010 BID: ORB10316.M TO ALL RADIO AMATEURS BT
Satellite: HUBBLE Catalog number: 20580 Epoch time: 10315.25682231 Element set: 674 Inclination: 028.4709 deg RA of node: 359.6735 deg Eccentricity: 0.0003076 Arg of perigee: 323.1425 deg Mean anomaly: 036.8970 deg Mean motion: 15.01086716 rev/day Decay rate: 5.89e-06 rev/day^2 Epoch rev: 92687 Checksum: 306
Satellite: ISS Catalog number: 25544 Epoch time: 10316.38599537 Element set: 262 Inclination: 051.6453 deg RA of node: 192.2553 deg Eccentricity: 0.0007844 Arg of perigee: 187.4989 deg Mean anomaly: 171.9411 deg Mean motion: 15.72692273 rev/day Decay rate: 2.4931e-04 rev/day^2 Epoch rev: 68677 Checksum: 338
Satellite: CO-58 Catalog number: 28895 Epoch time: 10315.40546720 Element set: 725 Inclination: 097.9937 deg RA of node: 194.8261 deg Eccentricity: 0.0017912 Arg of perigee: 180.1255 deg Mean anomaly: 179.9918 deg Mean motion: 14.59961430 rev/day Decay rate: 3.27e-06 rev/day^2 Epoch rev: 26846 Checksum: 348
Satellite: FALCON Catalog number: 30776 Epoch time: 10314.94227193 Element set: 0967 Inclination: 035.4338 deg RA of node: 233.1511 deg Eccentricity: 0.0001401 Arg of perigee: 333.6075 deg Mean anomaly: 026.4575 deg Mean motion: 15.03936037 rev/day Decay rate: 9.62e-06 rev/day^2 Epoch rev: 20216 Checksum: 269
Satellite: MAST Catalog number: 31126 Epoch time: 10314.56511430 Element set: 0008 Inclination: 097.9219 deg RA of node: 348.8831 deg Eccentricity: 0.0095030 Arg of perigee: 130.5643 deg Mean anomaly: 230.3900 deg Mean motion: 14.53640389 rev/day Decay rate: 2.75e-06 rev/day^2 Epoch rev: 18932 Checksum: 272
Satellite: CAPE1 Catalog number: 31130 Epoch time: 10315.99791442 Element set: 29 Inclination: 097.9215 deg RA of node: 347.3636 deg Eccentricity: 0.0103701 Arg of perigee: 135.2832 deg Mean anomaly: 225.6768 deg Mean motion: 14.52248903 rev/day Decay rate: 2.48e-06 rev/day^2 Epoch rev: 18911 Checksum: 293
Satellite: COMPASS Catalog number: 32787 Epoch time: 10315.96935591 Element set: 828 Inclination: 097.8781 deg RA of node: 018.5670 deg Eccentricity: 0.0015819 Arg of perigee: 160.8655 deg Mean anomaly: 199.3106 deg Mean motion: 14.82035921 rev/day Decay rate: 7.31e-06 rev/day^2 Epoch rev: 13738 Checksum: 330
Satellite: AAUSAT2 Catalog number: 32788 Epoch time: 10315.89020726 Element set: 817 Inclination: 097.8789 deg RA of node: 018.6515 deg Eccentricity: 0.0015398 Arg of perigee: 161.4675 deg Mean anomaly: 198.7072 deg Mean motion: 14.82189331 rev/day Decay rate: 8.29e-06 rev/day^2 Epoch rev: 13738 Checksum: 344
Satellite: DO-64 Catalog number: 32789 Epoch time: 10315.88089186 Element set: 834 Inclination: 097.8853 deg RA of node: 019.2958 deg Eccentricity: 0.0015850 Arg of perigee: 160.1800 deg Mean anomaly: 200.0108 deg Mean motion: 14.82419852 rev/day Decay rate: 1.231e-05 rev/day^2 Epoch rev: 13738 Checksum: 314
Satellite: CO-66 Catalog number: 32791 Epoch time: 10314.32577096 Element set: 0819 Inclination: 097.8802 deg RA of node: 016.9437 deg Eccentricity: 0.0015920 Arg of perigee: 164.6765 deg Mean anomaly: 195.4924 deg Mean motion: 14.81789807 rev/day Decay rate: 8.3e-07 rev/day^2 Epoch rev: 13709 Checksum: 345
Satellite: RS-30 Catalog number: 32953 Epoch time: 10316.06860192 Element set: 208 Inclination: 082.4988 deg RA of node: 297.7209 deg Eccentricity: 0.0019509 Arg of perigee: 136.1000 deg Mean anomaly: 224.1632 deg Mean motion: 12.43009222 rev/day Decay rate: 1.0e-07 rev/day^2 Epoch rev: 11211 Checksum: 251
Satellite: TACSAT-3 Catalog number: 35001 Epoch time: 10314.74981748 Element set: 0442 Inclination: 040.4545 deg RA of node: 052.7320 deg Eccentricity: 0.0022552 Arg of perigee: 019.6686 deg Mean anomaly: 340.4996 deg Mean motion: 15.43502525 rev/day Decay rate: 7.524e-05 rev/day^2 Epoch rev: 08327 Checksum: 286
Satellite: PHARMSAT Catalog number: 35002 Epoch time: 10315.56696832 Element set: 401 Inclination: 040.4686 deg RA of node: 045.3982 deg Eccentricity: 0.0024696 Arg of perigee: 028.4528 deg Mean anomaly: 331.7625 deg Mean motion: 15.43855331 rev/day Decay rate: 6.930e-05 rev/day^2 Epoch rev: 8342 Checksum: 293
Satellite: HAWKSAT1 Catalog number: 35003 Epoch time: 10315.55687047 Element set: 435 Inclination: 040.4580 deg RA of node: 034.9094 deg Eccentricity: 0.0022704 Arg of perigee: 051.3050 deg Mean anomaly: 308.9791 deg Mean motion: 15.48887113 rev/day Decay rate: 1.6817e-04 rev/day^2 Epoch rev: 8354 Checksum: 288
Satellite: CP6 Catalog number: 35004 Epoch time: 10316.21829784 Element set: 434 Inclination: 040.4594 deg RA of node: 028.4353 deg Eccentricity: 0.0021720 Arg of perigee: 062.1650 deg Mean anomaly: 298.1441 deg Mean motion: 15.50525360 rev/day Decay rate: 2.1143e-04 rev/day^2 Epoch rev: 8366 Checksum: 266
Satellite: AEROCUB3 Catalog number: 35005 Epoch time: 10316.24390009 Element set: 517 Inclination: 040.4648 deg RA of node: 012.6913 deg Eccentricity: 0.0022667 Arg of perigee: 094.3489 deg Mean anomaly: 265.9928 deg Mean motion: 15.69527473 rev/day Decay rate: 1.49423e-03 rev/day^2 Epoch rev: 8384 Checksum: 317
Satellite: CASTOR Catalog number: 35694 Epoch time: 10230.44082147 Element set: 655 Inclination: 051.5930 deg RA of node: 222.0149 deg Eccentricity: 0.0004218 Arg of perigee: 308.0851 deg Mean anomaly: 053.0105 deg Mean motion: 16.48877011 rev/day Decay rate: 7.179566e-02 rev/day^2 Epoch rev: 6110 Checksum: 273
Satellite: METEOR-M Catalog number: 35865 Epoch time: 10316.05541018 Element set: 826 Inclination: 098.7396 deg RA of node: 008.6516 deg Eccentricity: 0.0002395 Arg of perigee: 321.9339 deg Mean anomaly: 038.1664 deg Mean motion: 14.21832865 rev/day Decay rate: 1.76e-06 rev/day^2 Epoch rev: 5973 Checksum: 311
Satellite: RS-38 Catalog number: 35869 Epoch time: 10316.08099551 Element set: 838 Inclination: 098.7381 deg RA of node: 008.7174 deg Eccentricity: 0.0004079 Arg of perigee: 307.5985 deg Mean anomaly: 052.4797 deg Mean motion: 14.21993052 rev/day Decay rate: 1.77e-06 rev/day^2 Epoch rev: 5974 Checksum: 349
/EX
participants (1)
-
Ray Hoad